Location: Wishram
(45.6596°N, 120.9636°W)
Time: 12:22:48
(UTC+00:00)

ACS3 Solar Sail - Visible Passes

Search period start: 08 May 2026 00:00
Search period end: 18 May 2026 00:00
Orbit: 890 x 951 km, 97.2° (Epoch: 7 May)

Date Brightness Start Highest point End Pass type
(mag) Time Alt. Az. Time Alt. Az. Time Alt. Az.
8 May 1.8 08:49:12 10° NNE 08:55:11 68° E 08:56:14 57° SSE visible
8 May 3.2 10:32:29 10° NNW 10:36:58 23° WNW 10:39:43 17° W visible
9 May 3.8 07:18:08 10° ENE 07:20:34 12° E 07:21:32 12° E visible
9 May 1.7 08:57:47 10° NNE 09:03:49 79° ESE 09:05:01 59° S visible
9 May 3.4 10:41:22 10° NNW 10:45:28 19° WNW 10:48:30 13° W visible
10 May 3.6 07:25:59 10° NE 07:29:21 15° E 07:30:21 15° E visible
10 May 1.6 09:06:24 10° NNE 09:12:27 88° WNW 09:13:50 57° SSW visible
10 May 3.6 10:50:20 10° NNW 10:53:57 17° WNW 10:57:19 11° W visible
11 May 3.5 07:34:07 10° NE 07:38:09 18° E 07:39:10 18° E visible
11 May 1.7 09:15:05 10° N 09:21:06 76° WNW 09:22:39 51° SW visible
11 May 3.7 10:59:26 10° NNW 11:02:27 14° NW 11:05:28 10° W visible
12 May 3.3 07:42:25 10° NE 07:46:57 22° E 07:48:00 21° ESE visible
12 May 1.8 09:23:47 10° N 09:29:45 65° WNW 09:31:29 45° SW visible
12 May 3.8 11:08:45 10° NNW 11:10:56 12° NW 11:13:08 10° WNW visible
13 May 3.1 07:50:49 10° NE 07:55:45 26° E 07:56:51 24° ESE visible
13 May 2.0 09:32:32 10° N 09:38:24 55° WNW 09:40:21 39° SW visible
13 May 4.0 11:18:48 10° NW 11:19:26 10° NW 11:20:04 10° WNW visible
14 May 2.8 07:59:17 10° NNE 08:04:33 30° E 08:05:43 28° ESE visible
14 May 2.3 09:41:19 10° N 09:47:03 47° WNW 09:49:13 33° WSW visible
15 May 2.6 08:07:50 10° NNE 08:13:21 36° E 08:14:36 33° ESE visible
15 May 2.5 09:50:09 10° N 09:55:42 40° WNW 09:58:05 28° WSW visible
16 May 2.4 08:16:27 10° NNE 08:22:09 42° E 08:23:30 37° SE visible
16 May 2.7 09:59:00 10° N 10:04:21 34° WNW 10:06:59 24° WSW visible
17 May 2.2 08:25:05 10° NNE 08:30:58 50° E 08:32:24 42° SE visible
17 May 2.9 10:07:55 10° N 10:13:00 29° WNW 10:15:54 20° WSW visible
